FW0202 Weather Reports


Display with metric or nautical units.
time (UTC)temp
F
wind
direction
speed
MPH
gust
MPH
rain 1hr
in
rain 24hr
in
rain mn
in
humidity
%
barometer
mb
20260502164322 59 176 5.0 6.0 0.00 0.20 0.01 98 1001.3
20260502163818 59 176 4.0 6.0 0.00 0.20 0.01 98 1001.5
20260502163532 60 195 5.0 6.0 0.00 0.20 0.01 98 1001.4
20260502162810 60 193 5.0 6.0 0.00 0.20 0.01 98 1001.5
20260502162515 60 197 5.0 6.0 0.00 0.20 0.01 98 1001.5
20260502161751 60 180 4.0 6.0 0.00 0.20 0.01 98 1001.5
20260502161255 60 199 5.0 6.0 0.00 0.20 0.01 98 1001.7
20260502160743 60 180 5.0 6.0 0.00 0.20 0.01 98 1001.6
20260502160243 60 182 5.0 6.0 0.00 0.20 0.01 98 1001.5
20260502151914 61 183 5.0 6.0 0.00 0.20 0.00 98 1002.6
20260502151148 61 184 4.0 6.0 0.00 0.20 0.00 98 1002.5
20260502150640 61 186 6.0 6.0 0.00 0.20 0.00 98 1002.2
20260502150347 61 181 4.0 6.0 0.00 0.20 0.00 98 1002.4
20260502130344 62 179 4.0 6.0 0.00 0.20 0.20 98 1002.6
20260502123300 62 179 4.0 6.0 0.00 0.21 0.20 98 1002.7
20260502122755 62 171 5.0 6.0 0.00 0.21 0.20 98 1003.0
20260502122424 62 178 5.0 6.0 0.00 0.21 0.20 98 1002.8
20260502121212 62 179 4.0 6.0 0.00 0.21 0.20 97 1003.0
20260502120656 63 176 5.0 6.0 0.00 0.21 0.20 97 1003.1
20260502120208 63 173 5.0 7.0 0.00 0.21 0.20 97 1003.1
20260502115649 63 184 5.0 7.0 0.00 0.21 0.20 97 1003.2
20260502115145 63 180 5.0 6.0 0.00 0.21 0.20 97 1003.0
20260502114635 63 172 5.0 6.0 0.00 0.21 0.20 97 1003.0
20260502114134 63 175 5.0 6.0 0.00 0.21 0.20 97 1003.3
20260502113835 63 165 5.0 5.0 0.00 0.21 0.20 97 1003.2
20260502113108 63 176 4.0 5.0 0.00 0.22 0.20 97 1003.2
20260502112555 63 181 5.0 5.0 0.00 0.22 0.20 97 1003.1
20260502112313 63 180 5.0 5.0 0.00 0.22 0.20 97 1003.1
20260502111534 63 175 5.0 6.0 0.00 0.22 0.20 97 1003.1
20260502111034 63 179 5.0 6.0 0.00 0.21 0.19 97 1003.0
20260502110533 63 180 4.0 5.0 0.00 0.22 0.19 97 1003.1
20260502110012 63 177 5.0 6.0 0.00 0.22 0.19 97 1003.0
20260502105727 63 184 5.0 6.0 0.00 0.26 0.19 97 1002.9
20260502105004 63 178 4.0 5.0 0.00 0.31 0.19 97 1002.9
20260502104449 63 181 5.0 6.0 0.00 0.37 0.19 97 1002.9
20260502103946 63 179 5.0 6.0 0.00 0.40 0.19 97 1002.8
20260502103433 63 179 5.0 6.0 0.00 0.41 0.19 97 1003.0
20260502102932 63 172 5.0 6.0 0.00 0.43 0.19 97 1003.0
20260502102413 63 180 5.0 5.0 0.00 0.47 0.19 97 1002.8
20260502101909 63 182 5.0 5.0 0.00 0.52 0.19 97 1002.6
20260502101354 64 180 5.0 6.0 0.00 0.57 0.19 97 1002.8
20260502101118 64 180 5.0 6.0 0.00 0.65 0.19 97 1002.9
20260502100347 64 180 5.0 5.0 0.00 0.70 0.19 97 1002.5
20260502091204 64 174 5.0 6.0 0.10 0.93 0.19 96 1002.3
20260502090713 64 171 5.0 6.0 0.11 0.97 0.19 96 1002.2
20260502090155 64 163 5.0 6.0 0.11 0.98 0.19 96 1002.2
20260502070915 68 156 6.0 6.0 0.00 0.94 0.08 89 1001.3
20260502070628 68 164 5.0 6.0 0.00 0.94 0.08 89 1001.3
20260502065857 69 167 5.0 6.0 0.00 0.94 0.08 87 1001.5
20260502065352 69 167 5.0 6.0 0.00 0.94 0.08 85 1001.2
20260502064848 69 183 4.0 6.0 0.00 0.95 0.08 85 1001.3
20260502064825 69 176 4.0 6.0 0.00 0.96 0.08 85 1001.1
20260502063829 69 175 4.0 6.0 0.00 0.96 0.08 85 1001.0
20260502063316 69 172 5.0 6.0 0.00 0.96 0.08 85 1000.9
20260502062811 70 174 4.0 6.0 0.00 0.96 0.08 85 1001.0
20260502062307 70 174 4.0 6.0 0.00 0.96 0.08 85 1001.0
20260502061754 70 185 4.0 6.0 0.00 0.96 0.08 84 1001.2
20260502061239 70 172 4.0 6.0 0.00 0.96 0.08 84 1001.2
20260502060734 71 172 5.0 7.0 0.00 0.96 0.08 83 1000.8
20260502060230 71 199 4.0 7.0 0.00 0.96 0.08 83 1000.9
20260502055949 71 185 4.0 6.0 0.00 0.96 0.08 82 1000.8
20260502055222 71 164 4.0 6.0 0.00 0.96 0.08 82 1000.8
20260502055207 71 176 5.0 6.0 0.00 0.96 0.08 82 1000.9
20260502054214 70 178 4.0 6.0 0.00 0.96 0.08 85 1000.9
20260502053655 70 170 4.0 5.0 0.00 0.96 0.08 86 1000.8
20260502053418 70 171 4.0 5.0 0.00 0.96 0.08 86 1000.9
20260502052652 70 170 4.0 6.0 0.00 0.96 0.08 85 1000.8
20260502052147 69 186 3.0 6.0 0.00 0.96 0.08 86 1000.8
20260502051624 69 226 2.0 6.0 0.00 0.96 0.08 85 1001.0
20260502051125 70 163 5.0 6.0 0.00 0.96 0.08 86 1000.9
20260502050831 70 162 4.0 6.0 0.00 0.96 0.08 84 1000.8
20260502050110 71 181 4.0 6.0 0.00 0.96 0.08 83 1000.9
20260502045553 71 155 4.0 6.0 0.00 0.96 0.08 83 1001.0
20260502045053 71 158 4.0 6.0 0.00 0.96 0.08 81 1000.8
20260502044539 72 147 5.0 7.0 0.00 0.96 0.08 81 1001.0
20260502044014 72 167 4.0 7.0 0.00 0.96 0.08 80 1001.1
20260502043511 72 177 4.0 7.0 0.00 0.96 0.08 80 1001.2
20260502043006 72 161 4.0 6.0 0.00 0.96 0.08 81 1001.1
20260502042714 72 196 2.0 6.0 0.00 0.96 0.08 80 1000.9
20260502041953 72 178 3.0 6.0 0.00 0.96 0.08 81 1001.2
20260502041443 71 163 4.0 6.0 0.00 0.96 0.08 85 1001.1
20260502040923 71 186 4.0 6.0 0.00 0.96 0.08 82 1001.2
20260502040646 71 180 4.0 5.0 0.00 0.96 0.08 83 1001.1
20260502035922 71 159 5.0 6.0 0.00 0.96 0.08 82 1001.2
20260502035422 71 168 4.0 9.0 0.00 0.96 0.08 81 1001.2
20260502034922 72 193 3.0 9.0 0.00 0.96 0.08 80 1001.1
20260502034419 73 157 4.0 7.0 0.00 0.96 0.08 80 1001.0
20260502033915 71 170 4.0 6.0 0.00 0.96 0.08 82 1001.2
20260502033625 71 161 4.0 6.0 0.00 0.96 0.08 82 1001.0
20260502032856 72 150 6.0 6.0 0.00 0.96 0.08 82 1001.2
20260502032342 73 180 4.0 6.0 0.00 0.96 0.08 82 1001.2
20260502032329 72 178 3.0 6.0 0.00 0.96 0.08 82 1001.2
20260502031333 72 166 4.0 6.0 0.00 0.96 0.08 83 1001.5
20260502030829 71 169 5.0 6.0 0.00 0.96 0.08 84 1001.5
20260502030326 72 188 4.0 9.0 0.00 0.96 0.08 84 1001.6
20260502025821 72 212 3.0 9.0 0.00 0.96 0.08 83 1001.7
20260502025322 72 163 4.0 6.0 0.00 0.96 0.08 83 1001.9
20260502024821 73 181 4.0 6.0 0.00 0.96 0.08 84 1001.8
20260502024319 72 174 4.0 6.0 0.00 0.96 0.08 86 1001.9
20260502023815 71 180 4.0 6.0 0.04 0.96 0.08 88 1001.8
20260502023311 69 166 4.0 6.0 0.06 0.96 0.08 90 1001.9
20260502022806 69 183 4.0 6.0 0.07 0.96 0.08 92 1002.1
20260502022306 69 189 3.0 6.0 0.07 0.96 0.08 93 1002.1
20260502022026 68 179 4.0 6.0 0.07 0.96 0.08 93 1002.1
20260502021254 68 173 4.0 6.0 0.07 0.96 0.08 93 1002.1
20260502021011 67 167 4.0 6.0 0.07 0.96 0.08 93 1002.5
20260502020250 67 162 5.0 6.0 0.07 0.96 0.08 93 1002.4
20260502015750 67 161 4.0 8.0 0.07 0.96 0.08 92 1002.6
20260502015734 67 186 4.0 8.0 0.07 0.96 0.08 93 1002.6
20260502014744 67 172 5.0 8.0 0.07 0.96 0.08 92 1002.8
20260502014240 67 156 5.0 7.0 0.06 0.96 0.07 91 1003.2
20260502013725 67 309 5.0 7.0 0.04 0.93 0.04 90 1003.3
20260502013221 69 126 2.0 7.0 0.01 0.91 0.02 88 1003.2
20260502012717 71 178 3.0 7.0 0.00 0.90 0.01 84 1003.2
20260502012213 71 151 2.0 6.0 0.00 0.90 0.01 79 1002.9
20260502011709 72 164 4.0 6.0 0.00 0.90 0.01 77 1002.9
20260502011206 72 165 4.0 7.0 0.00 0.90 0.01 78 1002.9
20260502010652 72 223 6.0 7.0 0.00 0.90 0.01 76 1003.0
20260502010416 73 157 5.0 7.0 0.00 0.90 0.01 74 1003.0
20260502005906 75 176 4.0 6.0 0.00 0.90 0.01 74 1003.2
20260502005357 75 166 5.0 6.0 0.00 0.90 0.01 76 1003.3
20260502004635 74 169 5.0 6.0 0.00 0.90 0.01 76 1003.3
20260502004337 73 151 6.0 7.0 0.00 0.90 0.01 78 1003.4
20260502003616 72 166 4.0 7.0 0.00 0.90 0.01 80 1003.3
20260502003112 72 157 5.0 6.0 0.00 0.90 0.01 81 1003.5
20260502002607 72 165 4.0 6.0 0.00 0.90 0.01 81 1003.5
20260502002046 72 151 5.0 6.0 0.00 0.90 0.01 80 1003.7
20260502001546 73 168 4.0 6.0 0.00 0.90 0.01 81 1003.5
20260502001045 74 164 4.0 6.0 0.00 0.90 0.01 77 1003.6
20260502000541 74 165 4.0 6.0 0.00 0.90 0.01 82 1003.6
20260502000027 73 157 5.0 6.0 0.00 0.90 0.01 79 1003.9
20260501235513 73 181 4.0 6.0 0.00 0.90 0.01 81 1003.8
20260501235009 71 150 5.0 6.0 0.00 0.90 0.01 89 1003.9
20260501234445 69 196 4.0 6.0 0.00 0.90 0.01 97 1003.9
20260501233946 68 178 4.0 6.0 0.00 0.90 0.01 97 1003.9
20260501233445 68 172 4.0 6.0 0.00 0.90 0.01 98 1003.9
20260501232914 67 179 4.0 6.0 0.00 0.90 0.01 98 1003.8
20260501232408 67 180 4.0 6.0 0.00 0.90 0.01 98 1003.9
20260501231856 68 156 5.0 6.0 0.00 0.90 0.01 98 1003.8
20260501231351 68 184 4.0 6.0 0.00 0.90 0.01 99 1003.9
20260501230837 68 178 4.0 6.0 0.00 0.90 0.01 99 1004.0
20260501230322 67 179 4.0 6.0 0.00 0.90 0.01 99 1003.9
20260501225819 66 178 4.0 6.0 0.00 0.90 0.01 99 1003.7
20260501225313 66 177 5.0 6.0 0.00 0.90 0.01 99 1003.9
20260501224810 66 159 6.0 6.0 0.00 0.90 0.01 99 1003.8
20260501224256 66 176 4.0 6.0 0.00 0.90 0.01 99 1003.6
20260501223752 66 170 4.0 6.0 0.00 0.90 0.01 99 1003.7
20260501223507 65 173 5.0 6.0 0.00 0.89 0.00 99 1003.8
20260501222744 66 177 4.0 6.0 0.00 0.89 0.00 99 1003.6
20260501222244 65 180 4.0 6.0 0.00 0.89 0.00 99 1003.5
20260501222002 65 168 5.0 6.0 0.00 0.89 0.00 99 1003.5
20260501221723 64 174 4.0 5.0 0.00 0.89 0.00 99 1003.4
20260501220742 65 172 4.0 5.0 0.00 0.89 0.00 99 1003.6
20260501220243 65 175 4.0 6.0 0.00 0.89 0.00 99 1003.5
20260501215738 64 175 4.0 6.0 0.00 0.89 0.00 99 1003.6
20260501215233 64 175 4.0 5.0 0.00 0.89 0.00 99 1003.6
20260501214719 65 175 4.0 5.0 0.00 0.89 0.00 99 1003.6
20260501214216 64 176 5.0 6.0 0.00 0.89 0.00 99 1003.4
20260501213712 64 173 4.0 6.0 0.00 0.89 0.00 99 1003.6
20260501213208 64 170 4.0 5.0 0.00 0.89 0.00 99 1003.4
20260501212654 63 178 4.0 5.0 0.00 0.89 0.00 99 1003.4
20260501212149 63 172 5.0 5.0 0.00 0.89 0.00 99 1003.3
20260501211641 63 177 5.0 5.0 0.00 0.89 0.00 99 1003.4
20260501211130 63 178 5.0 5.0 0.00 0.89 0.00 99 1003.3
20260501210626 63 177 5.0 5.0 0.00 0.89 0.00 99 1003.3
20260501210123 63 177 4.0 5.0 0.00 0.89 0.00 99 1003.3
20260501205558 63 173 5.0 5.0 0.00 0.89 0.00 99 1003.3
20260501205054 62 180 4.0 5.0 0.00 0.89 0.00 99 1003.2
20260501204540 62 181 4.0 5.0 0.00 0.89 0.00 99 1003.4
20260501204015 63 183 4.0 6.0 0.00 0.89 0.00 99 1003.3
20260501203511 63 181 4.0 6.0 0.00 0.89 0.00 99 1003.2
20260501203008 63 187 4.0 6.0 0.00 0.89 0.00 99 1003.2
20260501202453 63 175 5.0 6.0 0.00 0.89 0.00 99 1003.0
20260501201949 62 178 5.0 5.0 0.00 0.89 0.00 99 1003.2
20260501201701 62 176 4.0 5.0 0.00 0.89 0.00 99 1003.1
20260501201159 63 182 4.0 5.0 0.00 0.89 0.00 99 1003.0
20260501200436 63 175 5.0 5.0 0.00 0.89 0.00 99 1003.0
20260501195910 63 178 4.0 5.0 0.00 0.90 0.00 99 1003.0
20260501195410 63 178 5.0 5.0 0.00 0.90 0.00 99 1002.9
20260501194909 63 175 5.0 6.0 0.00 0.90 0.00 99 1003.1
20260501194410 62 182 4.0 6.0 0.00 0.90 0.00 99 1002.9
20260501193856 62 184 4.0 5.0 0.00 0.90 0.00 99 1003.0
20260501193338 62 182 5.0 6.0 0.00 0.90 0.00 99 1002.7
20260501192836 62 193 5.0 6.0 0.00 0.90 0.00 99 1002.7
20260501192313 63 179 4.0 6.0 0.00 0.90 0.00 99 1002.4
20260501191807 63 180 5.0 6.0 0.00 0.90 0.00 99 1002.6
20260501191244 63 178 4.0 6.0 0.00 0.90 0.00 99 1002.5
20260501190739 63 175 4.0 6.0 0.00 0.91 0.00 99 1002.5
20260501190502 63 173 5.0 6.0 0.00 0.92 0.00 99 1002.4
20260501185738 63 180 5.0 6.0 0.00 0.93 0.00 99 1002.4
20260501185502 63 186 4.0 6.0 0.00 0.94 0.00 99 1002.4
20260501184714 63 172 4.0 6.0 0.00 0.95 0.00 99 1002.4
20260501184209 63 173 4.0 6.0 0.00 0.96 0.00 99 1002.4
20260501183654 63 176 4.0 6.0 0.00 0.97 0.00 99 1002.2
20260501183150 63 177 5.0 5.0 0.00 0.97 0.00 99 1002.4
20260501182646 63 173 4.0 5.0 0.00 0.97 0.00 99 1002.2
20260501182142 63 177 4.0 6.0 0.00 0.97 0.00 99 1002.4
20260501181636 63 178 4.0 6.0 0.00 0.97 0.00 99 1002.3
20260501181114 64 173 4.0 5.0 0.00 0.97 0.00 99 1002.3
20260501180610 64 175 5.0 6.0 0.00 0.98 0.00 99 1002.1
20260501180109 64 175 4.0 6.0 0.00 0.98 0.00 99 1002.1